Regional Weather Roundup
Issued by NWS Sioux Falls, SD

Home | Current Version | Previous Version | Text Only | Print | Product List | Glossary Off
Versions: 1 2 3 4 5 6 7 8 9 10 11 12 13 14 15 16 17 18 19 20 21 22 23 24 25 26 27 28 29 30 31 32 33 34 35 36 37 38 39 40 41 42 43 44 45 46 47 48 49 50

000
ASUS43 KFSD 180502
RWRFSD

WEATHER ROUNDUP FOR SE SOUTH DAKOTA/SW MINNESOTA/NW IOWA
NATIONAL WEATHER SERVICE SIOUX FALLS SD
1200 AM CDT FRI AUG 18 2017

NOTE: "FAIR" INDICATES FEW OR NO CLOUDS BELOW 12,000 FEET WITH NO
SIGNIFICANT WEATHER AND OR OBSTRUCTIONS TO VISIBILITY.


SDZ038>040-050-052>070-180600-
SOUTHEAST SOUTH DAKOTA

CITY           SKY/WX    TMP DP  RH WIND       PRES   REMARKS
BROOKINGS      LGT RAIN  66  60  81 W9        29.98R
CHAMBERLAIN    DRIZZLE   66  64  91 E8        29.92R
HURON          CLOUDY    64  54  69 SE10      29.89F
MADISON        TSTM      64  64 100 NW14      29.99R
MITCHELL       LGT RAIN  66  61  84 E8        29.92F
SIOUX FALLS    CLOUDY    64  62  93 CALM      29.91R
WINNER         FAIR      66  59  78 S10       29.91S
YANKTON        CLOUDY    68  61  78 E7        29.89S
$$

MNZ071-072-080-081-089-090-097-098-180600-
SOUTHWEST MINNESOTA

CITY           SKY/WX    TMP DP  RH WIND       PRES   REMARKS
FAIRMONT       CLEAR     61  59  93 W5        29.90R
JACKSON        CLEAR     55  55 100 CALM      29.92R
LUVERNE        PTCLDY    59  55  88 CALM      29.92S
MARSHALL       CLOUDY    59  57  93 SW5       29.91R
MONTEVIDEO     CLEAR     63  61  94 W5        29.89R
PIPESTONE      CLOUDY    64  61  88 SE3       29.92S
REDWOOD FALLS  CLEAR     64  60  87 W6        29.88S
TRACY          CLEAR     63  60  88 W3        29.91S
WINDOM         CLEAR     57  55  94 CALM      29.91S
WORTHINGTON    CLEAR     59  57  93 CALM      29.93R
$$

IAZ001>003-012>014-020>022-031-032-NEZ013-014-SDZ071-180600-
NORTHWEST IOWA

CITY           SKY/WX    TMP DP  RH WIND       PRES   REMARKS
CHEROKEE       CLEAR     59  59 100 CALM      29.92S
DENISON        CLEAR     61  59  94 E5        29.94S
ESTHERVILLE    CLEAR     57  57 100 W7        29.91R
LE MARS        CLEAR     59  59 100 CALM      29.91S FOG
ORANGE CITY    CLEAR     64  63  94 CALM      29.92S
SHELDON        CLOUDY    57  55  94 CALM      29.91R
SIOUX CITY     CLEAR     62  61  96 CALM      29.91R
SPENCER        CLEAR     60  59  96 W3        29.92R
STORM LAKE     CLEAR     64  59  82 NW7       29.93S
$$

ABBREVIATIONS USED IN REMARKS
   TC - TEMPERATURE IN CELSIUS
  WCI - WIND CHILL INDEX
   HX - HEAT INDEX
  VSB - VISIBILITY





USA.gov is the U.S. government's official web portal to all federal, state and local government web resources and services.